TimePST,TemperatureF,Dew PointF,Humidity,Sea Level PressureIn,VisibilityMPH,Wind Direction,Wind SpeedMPH,Gust SpeedMPH,PrecipitationIn,Events,Conditions,WindDirDegrees,DateUTC
12:15 AM,37.4,19.4,48,30.14,10.0,ESE,11.5,-,N/A,,Clear,120,2014-01-05 08:15:00
12:35 AM,35.6,19.4,52,30.14,10.0,ESE,10.4,-,N/A,,Clear,110,2014-01-05 08:35:00
12:55 AM,35.6,17.6,48,30.15,10.0,SE,11.5,-,N/A,,Clear,130,2014-01-05 08:55:00
1:15 AM,35.6,17.6,48,30.15,10.0,SE,12.7,-,N/A,,Clear,130,2014-01-05 09:15:00
1:35 AM,35.6,17.6,48,30.16,10.0,ESE,11.5,-,N/A,,Clear,120,2014-01-05 09:35:00
1:55 AM,35.6,17.6,48,30.17,10.0,ESE,9.2,-,N/A,,Clear,120,2014-01-05 09:55:00
2:15 AM,39.2,19.4,45,30.17,10.0,ESE,11.5,-,N/A,,Clear,110,2014-01-05 10:15:00
2:35 AM,42.8,19.4,39,30.18,10.0,ESE,11.5,-,N/A,,Clear,110,2014-01-05 10:35:00
2:55 AM,44.6,19.4,37,30.18,10.0,East,12.7,-,N/A,,Clear,100,2014-01-05 10:55:00
3:15 AM,44.6,19.4,37,30.18,10.0,East,11.5,-,N/A,,Clear,100,2014-01-05 11:15:00
3:35 AM,44.6,19.4,37,30.18,10.0,ESE,13.8,-,N/A,,Clear,110,2014-01-05 11:35:00
3:55 AM,44.6,19.4,37,30.18,10.0,East,12.7,-,N/A,,Clear,100,2014-01-05 11:55:00
4:15 AM,42.8,17.6,36,30.18,10.0,East,13.8,-,N/A,,Clear,100,2014-01-05 12:15:00
4:35 AM,42.8,15.8,34,30.18,10.0,East,13.8,-,N/A,,Clear,100,2014-01-05 12:35:00
4:55 AM,42.8,12.2,29,30.18,10.0,ESE,12.7,-,N/A,,Clear,110,2014-01-05 12:55:00
5:15 AM,42.8,8.6,25,30.19,10.0,East,11.5,17.3,N/A,,Clear,100,2014-01-05 13:15:00
5:35 AM,41.0,8.6,26,30.19,10.0,East,11.5,-,N/A,,Clear,100,2014-01-05 13:35:00
5:55 AM,41.0,6.8,24,30.19,10.0,ESE,13.8,-,N/A,,Clear,110,2014-01-05 13:55:00
6:15 AM,41.0,8.6,26,30.21,10.0,East,13.8,-,N/A,,Clear,100,2014-01-05 14:15:00
6:35 AM,41.0,8.6,26,30.21,10.0,East,12.7,17.3,N/A,,Clear,100,2014-01-05 14:35:00
6:55 AM,42.8,8.6,25,30.22,10.0,East,12.7,17.3,N/A,,Clear,100,2014-01-05 14:55:00
7:15 AM,41.0,8.6,26,30.23,10.0,ESE,15.0,-,N/A,,Clear,110,2014-01-05 15:15:00
7:35 AM,41.0,8.6,26,30.24,9.0,ESE,16.1,21.9,N/A,,Clear,120,2014-01-05 15:35:00
7:55 AM,42.8,6.8,23,30.25,10.0,ESE,13.8,-,N/A,,Clear,110,2014-01-05 15:55:00
8:15 AM,44.6,6.8,21,30.26,10.0,ESE,12.7,18.4,N/A,,Clear,110,2014-01-05 16:15:00
8:35 AM,46.4,5.0,18,30.27,10.0,ESE,12.7,18.4,N/A,,Clear,120,2014-01-05 16:35:00
8:55 AM,48.2,5.0,17,30.27,10.0,SE,17.3,23.0,N/A,,Clear,130,2014-01-05 16:55:00
9:15 AM,50.0,5.0,16,30.28,9.0,SE,16.1,21.9,N/A,,Clear,130,2014-01-05 17:15:00
9:35 AM,50.0,5.0,16,30.28,9.0,SE,18.4,24.2,N/A,,Clear,130,2014-01-05 17:35:00
9:55 AM,50.0,5.0,16,30.28,9.0,ESE,17.3,23.0,N/A,,Clear,120,2014-01-05 17:55:00
10:15 AM,51.8,5.0,15,30.28,9.0,SE,17.3,25.3,N/A,,Clear,130,2014-01-05 18:15:00
10:35 AM,53.6,5.0,14,30.28,10.0,SE,17.3,24.2,N/A,,Clear,130,2014-01-05 18:35:00
10:55 AM,53.6,3.2,13,30.27,8.0,SE,20.7,27.6,N/A,,Clear,130,2014-01-05 18:55:00
11:15 AM,55.4,1.4,11,30.27,9.0,SE,17.3,26.5,N/A,,Clear,130,2014-01-05 19:15:00
11:35 AM,55.4,1.4,11,30.26,8.0,SE,17.3,26.5,N/A,,Clear,130,2014-01-05 19:35:00
11:55 AM,55.4,1.4,11,30.25,8.0,ESE,13.8,24.2,N/A,,Clear,120,2014-01-05 19:55:00
12:15 PM,55.4,1.4,11,30.24,8.0,ESE,19.6,26.5,N/A,,Clear,110,2014-01-05 20:15:00
12:35 PM,55.4,1.4,11,30.23,10.0,ESE,18.4,26.5,N/A,,Clear,120,2014-01-05 20:35:00
12:55 PM,55.4,1.4,11,30.23,10.0,SE,16.1,-,N/A,,Clear,130,2014-01-05 20:55:00
1:15 PM,55.4,1.4,11,30.23,8.0,ESE,15.0,20.7,N/A,,Clear,110,2014-01-05 21:15:00
1:35 PM,55.4,1.4,11,30.22,9.0,SE,16.1,19.6,N/A,,Clear,130,2014-01-05 21:35:00
1:55 PM,55.4,-0.4,10,30.22,10.0,SE,11.5,21.9,N/A,,Clear,140,2014-01-05 21:55:00
2:15 PM,55.4,-0.4,10,30.22,10.0,ESE,12.7,19.6,N/A,,Clear,110,2014-01-05 22:15:00
2:35 PM,55.4,-0.4,10,30.22,10.0,SE,13.8,19.6,N/A,,Clear,140,2014-01-05 22:35:00
2:55 PM,55.4,-0.4,10,30.23,10.0,SE,13.8,21.9,N/A,,Clear,130,2014-01-05 22:55:00
3:15 PM,55.4,-0.4,10,30.23,10.0,SE,11.5,-,N/A,,Clear,130,2014-01-05 23:15:00
3:35 PM,55.4,-0.4,10,30.23,9.0,ESE,11.5,19.6,N/A,,Clear,120,2014-01-05 23:35:00
3:55 PM,53.6,-0.4,11,30.23,10.0,ESE,10.4,-,N/A,,Clear,120,2014-01-05 23:55:00
4:15 PM,51.8,-0.4,12,30.24,10.0,SE,11.5,-,N/A,,Clear,130,2014-01-06 00:15:00
4:35 PM,50.0,-0.4,13,30.24,10.0,ESE,10.4,-,N/A,,Clear,110,2014-01-06 00:35:00
4:55 PM,48.2,-0.4,13,30.25,10.0,East,9.2,-,N/A,,Clear,100,2014-01-06 00:55:00
5:15 PM,46.4,-0.4,14,30.25,10.0,East,6.9,-,N/A,,Clear,90,2014-01-06 01:15:00
5:35 PM,44.6,-0.4,15,30.25,10.0,East,9.2,-,N/A,,Clear,100,2014-01-06 01:35:00
5:55 PM,46.4,-0.4,14,30.26,10.0,East,9.2,-,N/A,,Clear,100,2014-01-06 01:55:00
6:15 PM,46.4,-0.4,14,30.26,10.0,East,9.2,-,N/A,,Clear,100,2014-01-06 02:15:00
6:35 PM,46.4,-0.4,14,30.26,10.0,ESE,9.2,-,N/A,,Clear,110,2014-01-06 02:35:00
6:55 PM,39.2,-0.4,19,30.27,10.0,East,9.2,-,N/A,,Clear,100,2014-01-06 02:55:00
7:15 PM,44.6,-2.2,14,30.27,10.0,East,9.2,-,N/A,,Clear,100,2014-01-06 03:15:00
7:35 PM,44.6,-2.2,14,30.28,10.0,North,-9999.0,-,N/A,,Clear,0,2014-01-06 03:35:00
7:55 PM,46.4,-2.2,13,30.28,10.0,East,11.5,17.3,N/A,,Clear,100,2014-01-06 03:55:00
8:15 PM,46.4,-2.2,13,30.29,10.0,East,12.7,-,N/A,,Clear,100,2014-01-06 04:15:00
8:35 PM,46.4,-2.2,13,30.29,10.0,East,12.7,-,N/A,,Clear,100,2014-01-06 04:35:00
8:55 PM,44.6,-2.2,14,30.30,10.0,East,12.7,-,N/A,,Clear,100,2014-01-06 04:55:00
9:15 PM,41.0,-2.2,16,30.30,10.0,East,10.4,-,N/A,,Clear,100,2014-01-06 05:15:00
9:35 PM,41.0,-2.2,16,30.30,10.0,East,10.4,-,N/A,,Clear,100,2014-01-06 05:35:00
9:55 PM,41.0,-0.4,18,30.31,10.0,East,8.1,-,N/A,,Clear,100,2014-01-06 05:55:00
10:15 PM,39.2,-2.2,17,30.31,10.0,North,-9999.0,-,N/A,,Clear,0,2014-01-06 06:15:00
10:35 PM,33.8,-0.4,23,30.31,10.0,North,-9999.0,-,N/A,,Clear,0,2014-01-06 06:35:00
10:55 PM,32.0,-0.4,25,30.31,10.0,North,-9999.0,-,N/A,,Clear,0,2014-01-06 06:55:00
11:15 PM,32.0,-0.4,25,30.31,10.0,ESE,6.9,-,N/A,,Clear,110,2014-01-06 07:15:00
11:35 PM,32.0,-0.4,25,30.31,10.0,East,6.9,-,N/A,,Clear,100,2014-01-06 07:35:00
11:55 PM,35.6,-0.4,22,30.31,10.0,ESE,9.2,-,N/A,,Clear,110,2014-01-06 07:55:00